[[{"header":{"parameterUnit":"m.s-1","parameterCategory":2,"la1":30.2991,"la2":30.254,"lo1":-89.0895,"lo2":-89.0444,"dy":0.0017,"dx":0.0017,"nx":28,"ny":28,"refTime":"2024-08-12T21:00:00:Z","depth":"0","parameterNumber":2,"parameterNumberName":"U-component_of_CURRENTS"},"data":[0,0,0,0,0,0,0,0,0,0,0,0,0,0,0,0,0,0,0,0,0,0,0,0,0,0,0,0,0,0,0,0,0,0,0,0,0,0,0,0,0,0,0,0,0,0,0,0,0,0,0,0,0,0,0,0,0,0,0.0867,0.0866,0,0.0767,0.0765,0.0764,0.0702,0.0702,0.0702,0.0702,0.0606,0.0604,0.0601,0,0,0,0,0,0,0,0,0,0,0,0,0,0.0895,0.0896,0.0867,0.0866,0.0865,0.0767,0.0765,0.0764,0.0702,0.0702,0.0702,0.0702,0.0607,0.0604,0.0601,0,0,0,0,0,0,0,0,0,0,0,0,0,0.0845,0.0896,0.0867,0.0825,0.082,0.0767,0.0765,0.0763,0.0702,0.0702,0.0702,0.0702,0.0608,0.0604,0.0601,0.0579,0,0,0.0589,0.0588,0,0,0,0,0,0,0,0,0.0848,0.0844,0.0832,0.0827,0.0822,0.0749,0.074,0.0703,0.0702,0.0743,0.0702,0.0702,0.0657,0.0649,0.0626,0.0574,0.057,0.0589,0.0587,0.0585,0.0584,0,0,0,0,0,0,0,0.0852,0.0847,0.0824,0.0831,0.0825,0.0773,0.0767,0.0732,0.0699,0.074,0.0736,0.073,0.0654,0.0629,0.0623,0.0569,0.0589,0.0586,0.0583,0.0582,0.0569,0.0571,0,0,0,0,0,0,0.0877,0.0851,0.0827,0.0821,0.0839,0.0774,0.0766,0.077,0.0699,0.0689,0.073,0.0727,0.0636,0.0627,0.0619,0.0649,0.0585,0.0581,0.0579,0.0568,0.057,0.0572,0,0,0,0,0,0,0.0878,0.0876,0.0831,0.0835,0.0827,0.0774,0.0779,0.0768,0.0752,0.0692,0.0682,0.0725,0.0635,0.0625,0.0605,0.0643,0.058,0.0576,0.0565,0.0568,0.0571,0.0671,0,0,0,0,0,0,0.0879,0.0877,0.089,0.0838,0.0828,0.082,0.0779,0.0767,0.0749,0.0745,0.0685,0.0675,0.0635,0.0611,0.0601,0.0637,0.0573,0.0563,0.0567,0.057,0.0665,0.0677,0.0687,0,0,0,0,0,0.0881,0.0898,0.0892,0.0889,0.0847,0.0821,0.0811,0.077,0.0749,0.0752,0.0712,0.0677,0.0628,0.0609,0.0597,0.0632,0.0561,0.0566,0.057,0.066,0.0675,0.0687,0,0,0,0,0,0,0.0907,0.0892,0.0884,0.0894,0.0871,0.0812,0.0806,0.0779,0.0747,0.0744,0.0685,0.0673,0.0675,0.0641,0.0621,0.0643,0.0596,0.0598,0.0669,0.0682,0.0692,0.0729,0.057,0,0,0,0,0,0.0924,0.0936,0.091,0.0915,0.091,0.0861,0.0845,0.0822,0.0785,0.077,0.0732,0.0701,0.0682,0.0671,0.0645,0.0646,0.0678,0.0668,0.0679,0.0688,0.0713,0.0778,0.0798,0.0586,0.0586,0.0586,0,0,0.0932,0.0926,0.0931,0.0922,0.0896,0.0903,0.0851,0.0837,0.0848,0.0766,0.0768,0.0731,0.069,0.0696,0.0696,0.0673,0.0776,0.0694,0.0702,0.0722,0.0785,0.0806,0.0824,0.0589,0.0589,0.0588,0,0,0.0949,0.0954,0.097,0.0965,0.0949,0.0932,0.0937,0.0899,0.089,0.0884,0.0839,0.0832,0.0788,0.0779,0.0765,0.0823,0.0828,0.0814,0.0898,0.0961,0.0979,0.0996,0.111,0.1135,0.0822,0.0822,0.0823,0,0.0965,0.0983,0.0967,0.0983,0.0988,0.0956,0.0976,0.0966,0.0929,0.0934,0.0905,0.0881,0.0837,0.0864,0.0882,0.085,0.0902,0.0847,0.0977,0.0993,0.1009,0.1121,0.1148,0.0828,0.0827,0.0827,0.0826,0,0.0993,0.1013,0.1021,0.1044,0.1048,0.106,0.1057,0.1065,0.1053,0.1043,0.1064,0.1017,0.101,0.0997,0.0949,0.1034,0.1046,0.0982,0.0947,0.1036,0.1149,0.1176,0.0835,0.0834,0.0832,0.0831,0,0,0.1025,0.1042,0.1048,0.1069,0.1087,0.1092,0.1131,0.1155,0.1188,0.1175,0.1224,0.1193,0.1178,0.1164,0.112,0.1165,0.1315,0.1126,0.1126,0.1247,0.1511,0.1656,0.1699,0.1272,0.1276,0.1279,0.1565,0,0.1058,0.1097,0.1104,0.1153,0.1176,0.1181,0.122,0.1241,0.1254,0.1297,0.1289,0.1313,0.1242,0.1248,0.1287,0.1297,0.1382,0.1247,0.14,0.1406,0.1529,0.1733,0.1823,0.2097,0.159,0.1595,0.1598,0,0.1092,0.1117,0.1162,0.1212,0.1225,0.1257,0.1322,0.1353,0.1408,0.1421,0.1459,0.1453,0.1528,0.1442,0.1575,0.1495,0.1529,0.1542,0.1551,0.167,0.1601,0.1915,0.2164,0.2071,0.1638,0.1635,0.1632,0,0.1114,0.1164,0.1203,0.1219,0.1269,0.1301,0.1337,0.1388,0.1434,0.1516,0.1572,0.1635,0.1697,0.1742,0.1792,0.1692,0.196,0.1816,0.1999,0.201,0.2113,0.2128,0.2297,0.1944,0.1943,0.1943,0.1942,0,0.115,0.1184,0.1216,0.124,0.1305,0.133,0.1409,0.1448,0.1531,0.1612,0.1646,0.1745,0.1773,0.191,0.1908,0.2107,0.2076,0.2099,0.2118,0.2157,0.2171,0.2109,0.2016,0.1953,0.1951,0.1949,0.1947,0,0.1163,0.1181,0.1233,0.1291,0.1311,0.136,0.145,0.1507,0.159,0.1709,0.1753,0.1889,0.209,0.217,0.2294,0.2306,0.24,0.2491,0.2578,0.2604,0.2648,0.2557,0.2611,0.2528,0.2749,0.2755,0.276,0,0.1173,0.1197,0.1262,0.1293,0.1321,0.139,0.1437,0.1522,0.1592,0.1796,0.1866,0.2112,0.2274,0.2597,0.272,0.2892,0.2655,0.3036,0.2845,0.2763,0.2673,0.2395,0.2295,0.3035,0.3042,0.3047,0.3051,0,0.1196,0.1214,0.1248,0.131,0.1362,0.1425,0.1506,0.1571,0.1692,0.1821,0.2029,0.2188,0.2573,0.2823,0.3104,0.3192,0.2929,0.3153,0.3034,0.2936,0.268,0.2572,0.2743,0.31,0.3095,0.3092,0.3089,0.3087,0.1204,0.1233,0.127,0.133,0.1382,0.1445,0.1501,0.1609,0.174,0.1944,0.2108,0.2382,0.2785,0.3214,0.3315,0.3549,0.327,0.3452,0.3367,0.3102,0.2977,0.3307,0.3683,0.3681,0.368,0.3679,0.3678,0,0.1215,0.1242,0.1291,0.1352,0.1395,0.1429,0.1532,0.1597,0.1747,0.1982,0.219,0.2667,0.3039,0.3351,0.3741,0.3725,0.3482,0.3641,0.3241,0.3137,0.3466,0.3432,0.3813,0.3813,0.3813,0.3813,0.3813,0.3813,0.1222,0.1255,0.1281,0.1341,0.138,0.144,0.1492,0.1612,0.1773,0.2083,0.236,0.2595,0.3038,0.3525,0.3738,0.374,0.3376,0.3346,0.3122,0.3346,0.3316,0.3287,0.3233,0.3566,0.3566,0.2708,0.2702,0.2698]},{"header":{"parameterUnit":"m.s-1","parameterCategory":2,"la1":30.2991,"la2":30.254,"lo1":-89.0895,"lo2":-89.0444,"dy":0.0017,"dx":0.0017,"nx":28,"ny":28,"refTime":"2024-08-12T21:00:00:Z","depth":"0","parameterNumber":3,"parameterNumberName":"V-component_of_CURRENTS"},"data":[0,0,0,0,0,0,0,0,0,0,0,0,0,0,0,0,0,0,0,0,0,0,0,0,0,0,0,0,0,0,0,0,0,0,0,0,0,0,0,0,0,0,0,0,0,0,0,0,0,0,0,0,0,0,0,0,0,0,-0.1684,-0.1684,0,-0.1701,-0.1701,-0.1701,-0.1727,-0.1727,-0.1728,-0.1729,-0.1897,-0.19,-0.1904,0,0,0,0,0,0,0,0,0,0,0,0,0,-0.155,-0.1553,-0.1684,-0.1684,-0.1685,-0.1701,-0.1701,-0.17,-0.1726,-0.1727,-0.1728,-0.1729,-0.1896,-0.19,-0.1905,0,0,0,0,0,0,0,0,0,0,0,0,0,-0.1589,-0.1554,-0.1684,-0.1702,-0.1704,-0.1701,-0.1701,-0.17,-0.1726,-0.1727,-0.1729,-0.173,-0.1894,-0.19,-0.1905,-0.1916,0,0,-0.1922,-0.1925,0,0,0,0,0,0,0,0,-0.1587,-0.1593,-0.1699,-0.1701,-0.1703,-0.1716,-0.1715,-0.1781,-0.1726,-0.1714,-0.1729,-0.173,-0.1852,-0.1861,-0.1854,-0.1924,-0.1931,-0.1923,-0.1926,-0.1929,-0.193,0,0,0,0,0,0,0,-0.1584,-0.1592,-0.1687,-0.1699,-0.1702,-0.1667,-0.1675,-0.1726,-0.1776,-0.1715,-0.1718,-0.1725,-0.1854,-0.1849,-0.1859,-0.1934,-0.1923,-0.1928,-0.1931,-0.1933,-0.2082,-0.2083,0,0,0,0,0,0,-0.1595,-0.159,-0.1686,-0.1688,-0.165,-0.167,-0.1678,-0.1708,-0.1773,-0.1783,-0.1724,-0.1726,-0.1838,-0.1852,-0.1865,-0.1884,-0.1929,-0.1934,-0.1937,-0.2082,-0.2082,-0.2083,0,0,0,0,0,0,-0.1592,-0.1604,-0.1686,-0.164,-0.1649,-0.1672,-0.1704,-0.1708,-0.1715,-0.1778,-0.1791,-0.173,-0.184,-0.1857,-0.1927,-0.1891,-0.1936,-0.1941,-0.2081,-0.2082,-0.2083,-0.1921,0,0,0,0,0,0,-0.1588,-0.1603,-0.1605,-0.1642,-0.1652,-0.168,-0.1704,-0.1707,-0.1718,-0.1722,-0.1788,-0.1804,-0.1842,-0.1918,-0.1932,-0.19,-0.1946,-0.208,-0.2081,-0.2082,-0.1926,-0.1916,-0.1908,0,0,0,0,0,-0.1584,-0.156,-0.1605,-0.1615,-0.1662,-0.168,-0.1681,-0.1697,-0.1718,-0.171,-0.1771,-0.1802,-0.1935,-0.1923,-0.194,-0.1907,-0.208,-0.2081,-0.2082,-0.1929,-0.1918,-0.1908,0,0,0,0,0,0,-0.1461,-0.1562,-0.1612,-0.1612,-0.1655,-0.1686,-0.1656,-0.1699,-0.1735,-0.1739,-0.1813,-0.1833,-0.1874,-0.1933,-0.1918,-0.1961,-0.2011,-0.2016,-0.1889,-0.188,-0.1871,-0.1818,-0.195,0,0,0,0,0,-0.1451,-0.149,-0.1566,-0.1567,-0.1579,-0.1629,-0.1632,-0.1663,-0.1708,-0.1722,-0.1785,-0.1848,-0.1889,-0.1919,-0.1971,-0.2,-0.2013,-0.1995,-0.1986,-0.1978,-0.1951,-0.1954,-0.194,-0.2087,-0.2087,-0.2087,0,0,-0.1405,-0.1463,-0.1483,-0.1549,-0.1569,-0.1573,-0.1631,-0.1633,-0.1647,-0.1739,-0.1765,-0.1822,-0.1895,-0.1915,-0.1939,-0.196,-0.1942,-0.198,-0.1971,-0.1949,-0.1953,-0.1938,-0.1924,-0.2088,-0.2088,-0.2088,0,0,-0.1313,-0.1382,-0.1377,-0.1414,-0.1465,-0.151,-0.1521,-0.1579,-0.1606,-0.1659,-0.1713,-0.1746,-0.1845,-0.1855,-0.188,-0.1863,-0.1898,-0.1901,-0.1805,-0.1806,-0.1792,-0.178,-0.1753,-0.174,-0.1893,-0.1893,-0.1892,0,-0.1256,-0.1273,-0.1366,-0.1358,-0.1371,-0.1486,-0.1463,-0.1507,-0.159,-0.1594,-0.1657,-0.1734,-0.1798,-0.178,-0.1776,-0.1831,-0.1844,-0.1825,-0.1787,-0.1776,-0.1766,-0.1742,-0.1729,-0.1885,-0.1886,-0.1887,-0.1887,0,-0.1173,-0.1177,-0.1158,-0.1225,-0.1247,-0.1245,-0.1337,-0.1369,-0.1441,-0.1485,-0.151,-0.1594,-0.1626,-0.1658,-0.1714,-0.1672,-0.1704,-0.1769,-0.1792,-0.174,-0.172,-0.1709,-0.1874,-0.1877,-0.1879,-0.1881,0,0,-0.1075,-0.1106,-0.1097,-0.1094,-0.1182,-0.1188,-0.1211,-0.1248,-0.1232,-0.1334,-0.13,-0.138,-0.1421,-0.1453,-0.152,-0.1531,-0.1471,-0.1618,-0.1622,-0.1551,-0.1455,-0.1413,-0.1399,-0.1535,-0.1533,-0.1532,-0.1457,0,-0.0985,-0.0939,-0.0987,-0.0943,-0.0926,-0.1024,-0.1031,-0.1081,-0.1142,-0.1146,-0.1222,-0.123,-0.1348,-0.1348,-0.1375,-0.1458,-0.1443,-0.1484,-0.1551,-0.1552,-0.1489,-0.1385,-0.1327,-0.1251,-0.1447,-0.1446,-0.1445,0,-0.0887,-0.0876,-0.0813,-0.0809,-0.0806,-0.08,-0.0817,-0.0837,-0.0877,-0.0914,-0.0936,-0.1014,-0.1033,-0.1153,-0.1224,-0.1253,-0.1326,-0.1395,-0.1395,-0.1401,-0.149,-0.1346,-0.1225,-0.1365,-0.1429,-0.1431,-0.1432,0,-0.0783,-0.0746,-0.0696,-0.0701,-0.0722,-0.0693,-0.071,-0.0744,-0.0731,-0.0749,-0.0725,-0.0797,-0.0808,-0.0927,-0.1087,-0.1153,-0.1161,-0.1271,-0.1284,-0.1282,-0.1265,-0.1264,-0.1249,-0.128,-0.1281,-0.1281,-0.1281,0,-0.0685,-0.0631,-0.0633,-0.0609,-0.0525,-0.0578,-0.0496,-0.0524,-0.052,-0.0464,-0.0583,-0.0543,-0.0759,-0.0814,-0.0986,-0.1076,-0.1075,-0.1217,-0.1245,-0.1208,-0.1203,-0.1355,-0.148,-0.1278,-0.1279,-0.1279,-0.128,0,-0.057,-0.0581,-0.0509,-0.0494,-0.0473,-0.0413,-0.0366,-0.0313,-0.0327,-0.0251,-0.0245,-0.0324,-0.0393,-0.0585,-0.0748,-0.0904,-0.1076,-0.1055,-0.0979,-0.0999,-0.1163,-0.1282,-0.126,-0.1313,-0.1049,-0.1047,-0.1046,0,-0.0507,-0.0464,-0.0413,-0.0361,-0.034,-0.0262,-0.0209,-0.0214,-0.016,-0.0113,-0.006,-0.0087,-0.0102,-0.0299,-0.056,-0.0772,-0.0959,-0.0862,-0.0979,-0.1105,-0.1261,-0.132,-0.1373,-0.089,-0.0887,-0.0885,-0.0883,0,-0.0387,-0.0377,-0.0331,-0.0233,-0.0156,-0.0066,0.001,0.008,0.0086,0.0152,0.0226,0.0232,0.0074,-0.0094,-0.0365,-0.0555,-0.0933,-0.0824,-0.0981,-0.1127,-0.1163,-0.125,-0.1001,-0.0864,-0.0866,-0.0868,-0.0869,-0.0869,-0.0296,-0.0241,-0.0198,-0.0097,-0.0007,0.0104,0.0196,0.027,0.0375,0.0488,0.0467,0.054,0.0299,-0.0061,-0.0334,-0.0735,-0.0794,-0.0881,-0.1007,-0.1047,-0.1112,-0.0791,-0.0685,-0.0685,-0.0686,-0.0687,-0.0687,0,-0.02,-0.016,-0.0066,0.0046,0.0159,0.018,0.0321,0.0414,0.0551,0.0681,0.0759,0.0753,0.0422,0.0038,-0.0489,-0.0839,-0.1009,-0.1046,-0.1147,-0.1194,-0.0915,-0.0925,-0.0833,-0.0833,-0.0833,-0.0833,-0.0833,-0.0832,-0.0152,-0.0067,-0.0034,0.0157,0.0249,0.0407,0.0494,0.0632,0.0751,0.097,0.1089,0.1145,0.0921,-0.008,-0.0832,-0.1076,-0.1344,-0.1369,-0.153,-0.14,-0.1396,-0.1392,-0.1428,-0.1442,-0.1443,-0.1722,-0.1726,-0.1728]}],[{"header":{"parameterUnit":"m.s-1","parameterCategory":2,"la1":30.2991,"la2":30.254,"lo1":-89.0895,"lo2":-89.0444,"dy":0.0017,"dx":0.0017,"nx":28,"ny":28,"refTime":"2024-08-12T21:00:00:Z","depth":"2","parameterNumber":2,"parameterNumberName":"U-component_of_CURRENTS"},"data":[0,0,0,0,0,0,0,0,0,0,0,0,0,0,0,0,0,0,0,0,0,0,0,0,0,0,0,0,0,0,0,0,0,0,0,0,0,0,0,0,0,0,0,0,0,0,0,0,0,0,0,0,0,0,0,0,0,0,0.0268,0.0269,0,0.037,0.0371,0.0372,0.0386,0.0385,0.0385,0.0384,0.0453,0.0456,0.0459,0,0,0,0,0,0,0,0,0,0,0,0,0,0.0119,0.0121,0.0268,0.0269,0.027,0.0369,0.0371,0.0372,0.0386,0.0385,0.0384,0.0383,0.0452,0.0456,0.0459,0,0,0,0,0,0,0,0,0,0,0,0,0,0.0198,0.0122,0.0267,0.029,0.0293,0.0369,0.0371,0.0372,0.0387,0.0385,0.0384,0.0383,0.0451,0.0455,0.0459,0.051,0,0,0.0471,0.0473,0,0,0,0,0,0,0,0,0.0193,0.0203,0.0285,0.0289,0.0292,0.0364,0.0344,0.0417,0.0387,0.0351,0.0384,0.0382,0.0422,0.0428,0.045,0.0514,0.0517,0.0472,0.0474,0.0476,0.0477,0,0,0,0,0,0,0,0.0188,0.0199,0.0307,0.0287,0.0291,0.0306,0.0316,0.0358,0.0391,0.0354,0.0355,0.0368,0.0423,0.0446,0.0452,0.0518,0.0472,0.0475,0.0478,0.0479,0.0676,0.0678,0,0,0,0,0,0,0.0177,0.0194,0.0304,0.031,0.0239,0.031,0.032,0.0342,0.0392,0.0398,0.0369,0.0368,0.044,0.0447,0.0454,0.0547,0.0476,0.048,0.0482,0.0673,0.0676,0.0679,0,0,0,0,0,0,0.0173,0.0186,0.03,0.0254,0.027,0.0314,0.0338,0.0345,0.0374,0.0404,0.0409,0.0391,0.0439,0.0448,0.0526,0.0548,0.0482,0.0485,0.0669,0.0674,0.0678,0.0713,0,0,0,0,0,0,0.0169,0.0184,0.0207,0.0254,0.0272,0.0355,0.034,0.0348,0.0383,0.0383,0.0425,0.0429,0.0439,0.0521,0.053,0.0552,0.0488,0.0666,0.0671,0.0676,0.0708,0.0718,0.0726,0,0,0,0,0,0.0163,0.0198,0.0208,0.0222,0.0299,0.0357,0.0368,0.0393,0.0386,0.0411,0.0454,0.0428,0.056,0.0527,0.0538,0.0561,0.0663,0.067,0.0676,0.0704,0.0716,0.0726,0,0,0,0,0,0,0.015,0.0204,0.0216,0.0267,0.0312,0.0359,0.0389,0.0403,0.0457,0.0458,0.0476,0.0487,0.0565,0.057,0.0533,0.0637,0.0603,0.0612,0.0621,0.0632,0.0641,0.0637,0.0492,0,0,0,0,0,0.0158,0.0199,0.0247,0.0293,0.0311,0.0351,0.038,0.0399,0.0447,0.0468,0.0506,0.0548,0.0601,0.062,0.0674,0.0731,0.0768,0.0752,0.0761,0.0768,0.0777,0.0876,0.0894,0.07,0.07,0.07,0,0,0.0166,0.0204,0.0227,0.0293,0.0326,0.0377,0.0366,0.0415,0.0468,0.0469,0.056,0.0592,0.0631,0.0704,0.0735,0.0705,0.0847,0.0776,0.0781,0.0786,0.0885,0.0903,0.092,0.0704,0.0703,0.0703,0,0,0.0199,0.0234,0.0273,0.0318,0.0375,0.0404,0.0419,0.0479,0.0512,0.0602,0.0618,0.0675,0.0752,0.0786,0.0808,0.0903,0.0904,0.0904,0.0929,0.1025,0.1042,0.1056,0.1137,0.1158,0.0891,0.0891,0.0891,0,0.02,0.0267,0.0295,0.0348,0.0392,0.0416,0.047,0.0519,0.0604,0.0645,0.0638,0.0778,0.0797,0.0883,0.0902,0.0921,0.0969,0.0876,0.1035,0.1051,0.1065,0.1144,0.1167,0.0893,0.0893,0.0893,0.0893,0,0.0261,0.0323,0.0352,0.0427,0.0475,0.053,0.0589,0.0646,0.0683,0.0731,0.0837,0.0884,0.0959,0.0964,0.0955,0.1057,0.1057,0.1046,0.0999,0.1086,0.1164,0.1188,0.0897,0.0896,0.0895,0.0895,0,0,0.0239,0.0365,0.0378,0.043,0.0523,0.0564,0.0655,0.0741,0.0808,0.088,0.0975,0.1043,0.1055,0.1084,0.1084,0.1137,0.1267,0.1119,0.1123,0.1183,0.1479,0.1388,0.1404,0.1279,0.1283,0.1286,0.1494,0,0.0276,0.0383,0.0441,0.0548,0.0606,0.0668,0.0753,0.0834,0.0908,0.101,0.1054,0.115,0.1106,0.114,0.1193,0.1257,0.133,0.1212,0.1399,0.1405,0.1301,0.1429,0.1215,0.1373,0.1517,0.1521,0.1524,0,0.0317,0.0386,0.0491,0.0617,0.0645,0.0714,0.084,0.0925,0.1056,0.1114,0.1202,0.1249,0.1343,0.1295,0.146,0.1385,0.1442,0.1478,0.1487,0.1404,0.1357,0.1312,0.1411,0.1563,0.156,0.1557,0.1554,0,0.0294,0.0423,0.0506,0.0554,0.0693,0.0752,0.0825,0.0956,0.1041,0.1192,0.1261,0.1383,0.1459,0.1551,0.1612,0.1558,0.1791,0.1737,0.172,0.1714,0.1569,0.1542,0.1885,0.1885,0.1884,0.1884,0.1883,0,0.0322,0.0396,0.0503,0.0561,0.0664,0.0751,0.0877,0.0972,0.111,0.122,0.1311,0.1408,0.1526,0.1652,0.1693,0.1785,0.1878,0.1761,0.1776,0.1575,0.1548,0.1729,0.1708,0.1892,0.189,0.1888,0.1887,0,0.0311,0.0387,0.0493,0.0623,0.0672,0.0746,0.0907,0.0991,0.1117,0.1266,0.1317,0.1476,0.1638,0.1752,0.1924,0.189,0.1986,0.1998,0.1742,0.1721,0.1824,0.1803,0.2011,0.201,0.2009,0.2008,0.2008,0,0.0323,0.037,0.0521,0.0581,0.0651,0.0767,0.0852,0.0995,0.1081,0.1293,0.1353,0.1555,0.1636,0.1847,0.1846,0.194,0.2045,0.1831,0.1675,0.1851,0.1845,0.1825,0.1806,0.1515,0.1511,0.1507,0.1504,0,0.0321,0.0371,0.0442,0.0568,0.0665,0.0774,0.0897,0.0954,0.1117,0.1217,0.1354,0.143,0.1589,0.158,0.1695,0.1704,0.1785,0.1752,0.2071,0.1487,0.1392,0.1382,0.1379,0.147,0.1473,0.1476,0.1478,0.1479,0.03,0.0338,0.042,0.054,0.0642,0.0736,0.0799,0.0884,0.0977,0.1078,0.121,0.1273,0.1334,0.1354,0.1413,0.1483,0.1544,0.1519,0.1528,0.1542,0.1417,0.1323,0.1366,0.1368,0.1371,0.1373,0.1375,0,0.0264,0.0314,0.0393,0.0513,0.0587,0.0695,0.0794,0.079,0.0829,0.095,0.0999,0.0946,0.0942,0.1129,0.1111,0.1116,0.1071,0.1175,0.111,0.114,0.1167,0.1023,0.0869,0.0869,0.0869,0.0869,0,0,0.0242,0.0292,0.0334,0.0423,0.0523,0.06,0.065,0.062,0.0663,0.0678,0.0745,0.0743,0.0935,0.0832,0.0852,0.0896,0.1013,0.0865,0.1241,0.1182,0.121,0.1309,0.1113,0,0,0,0,0]},{"header":{"parameterUnit":"m.s-1","parameterCategory":2,"la1":30.2991,"la2":30.254,"lo1":-89.0895,"lo2":-89.0444,"dy":0.0017,"dx":0.0017,"nx":28,"ny":28,"refTime":"2024-08-12T21:00:00:Z","depth":"2","parameterNumber":3,"parameterNumberName":"V-component_of_CURRENTS"},"data":[0,0,0,0,0,0,0,0,0,0,0,0,0,0,0,0,0,0,0,0,0,0,0,0,0,0,0,0,0,0,0,0,0,0,0,0,0,0,0,0,0,0,0,0,0,0,0,0,0,0,0,0,0,0,0,0,0,0,0.0818,0.0818,0,0.0824,0.0824,0.0824,0.0793,0.0793,0.0792,0.0791,0.0743,0.0742,0.0741,0,0,0,0,0,0,0,0,0,0,0,0,0,0.0708,0.0711,0.0818,0.0818,0.0818,0.0824,0.0824,0.0824,0.0793,0.0793,0.0792,0.0791,0.0743,0.0742,0.0741,0,0,0,0,0,0,0,0,0,0,0,0,0,0.0737,0.0711,0.0818,0.0806,0.0805,0.0824,0.0824,0.0824,0.0794,0.0793,0.0792,0.0791,0.0743,0.0742,0.0741,0.0753,0,0,0.0738,0.0737,0,0,0,0,0,0,0,0,0.0735,0.074,0.0808,0.0807,0.0806,0.0809,0.0767,0.0798,0.0794,0.0795,0.0791,0.079,0.0763,0.076,0.076,0.0751,0.0749,0.0738,0.0737,0.0737,0.0736,0,0,0,0,0,0,0,0.0733,0.074,0.0817,0.0808,0.0807,0.0776,0.078,0.0773,0.0781,0.0795,0.0793,0.0799,0.0761,0.0761,0.0758,0.0748,0.0738,0.0737,0.0736,0.0736,0.0726,0.0727,0,0,0,0,0,0,0.0744,0.0739,0.0817,0.0818,0.0771,0.078,0.0783,0.0807,0.0782,0.0778,0.08,0.0798,0.0763,0.076,0.0756,0.0707,0.0737,0.0736,0.0735,0.0726,0.0727,0.0727,0,0,0,0,0,0,0.0742,0.0752,0.0817,0.0779,0.0785,0.0783,0.081,0.0808,0.0807,0.0787,0.0781,0.0802,0.0762,0.0758,0.0752,0.0707,0.0735,0.0734,0.0726,0.0726,0.0727,0.0649,0,0,0,0,0,0,0.0739,0.0751,0.0773,0.0781,0.0788,0.0833,0.0811,0.0809,0.0814,0.0811,0.0787,0.0781,0.0761,0.0754,0.0751,0.0706,0.0733,0.0725,0.0726,0.0727,0.0651,0.0647,0.0643,0,0,0,0,0,0.0735,0.077,0.0775,0.0784,0.0819,0.0834,0.0835,0.0827,0.0815,0.0821,0.0802,0.0782,0.0756,0.0753,0.075,0.0704,0.0725,0.0726,0.0727,0.0652,0.0647,0.0643,0,0,0,0,0,0,0.0738,0.0771,0.0776,0.0821,0.0829,0.083,0.0823,0.0833,0.0824,0.0811,0.0792,0.0786,0.0778,0.0765,0.0762,0.0711,0.0735,0.0736,0.068,0.0676,0.0672,0.0637,0.0732,0,0,0,0,0,0.0751,0.0781,0.0802,0.0835,0.0827,0.0827,0.0832,0.0835,0.083,0.0825,0.0816,0.0796,0.0781,0.0747,0.0759,0.0714,0.0707,0.0687,0.0683,0.0679,0.0653,0.0668,0.0662,0.073,0.073,0.073,0,0,0.0761,0.0782,0.0799,0.0836,0.0822,0.083,0.0825,0.0829,0.0848,0.0821,0.0826,0.0808,0.0784,0.0749,0.0737,0.0717,0.0648,0.068,0.0676,0.0652,0.0668,0.0661,0.0655,0.0731,0.073,0.073,0,0,0.0762,0.0801,0.0803,0.0805,0.0807,0.0833,0.0838,0.0846,0.0849,0.0863,0.0842,0.0798,0.0791,0.0736,0.071,0.0696,0.0665,0.0691,0.0586,0.0602,0.0595,0.059,0.0524,0.0513,0.0642,0.0642,0.0642,0,0.0766,0.079,0.0806,0.079,0.0795,0.0834,0.083,0.0854,0.0872,0.0824,0.0865,0.0807,0.0784,0.0693,0.0655,0.068,0.0657,0.0595,0.0593,0.0588,0.0583,0.0518,0.0507,0.0638,0.0639,0.0639,0.0639,0,0.0754,0.0769,0.0759,0.0772,0.0783,0.0795,0.0824,0.0845,0.0865,0.0827,0.0786,0.0786,0.0701,0.0701,0.065,0.0571,0.0553,0.0622,0.0594,0.0571,0.0504,0.0493,0.0633,0.0634,0.0636,0.0636,0,0,0.0767,0.076,0.0751,0.0748,0.0777,0.079,0.0812,0.0796,0.0756,0.0779,0.0706,0.0658,0.0584,0.0554,0.0518,0.0499,0.0413,0.0495,0.0498,0.0406,0.0369,0.0318,0.0302,0.0475,0.0474,0.0473,0.0315,0,0.0749,0.0735,0.074,0.0747,0.0745,0.077,0.0786,0.0761,0.0739,0.0684,0.0636,0.0577,0.0554,0.0499,0.0463,0.0469,0.0389,0.0444,0.0424,0.0421,0.0363,0.0291,0.027,0.0126,0.0306,0.0304,0.0303,0,0.072,0.0731,0.0713,0.073,0.0722,0.0732,0.0719,0.0732,0.0629,0.0601,0.0488,0.0437,0.0346,0.0403,0.0336,0.0366,0.0305,0.033,0.0326,0.0298,0.0354,0.0192,0.0101,0.0286,0.0287,0.0289,0.029,0,0.071,0.0711,0.0709,0.0707,0.0729,0.0707,0.0725,0.0643,0.0633,0.051,0.0481,0.0355,0.036,0.031,0.0257,0.0283,0.0233,0.0298,0.0184,0.0178,0.0164,0.0159,0.022,0.022,0.0221,0.0221,0.0222,0,0.0698,0.069,0.0695,0.0686,0.0679,0.0678,0.0633,0.0618,0.0573,0.0531,0.0405,0.0415,0.035,0.0288,0.0223,0.0151,0.0188,0.0124,0.0135,0.0132,0.0126,0.0295,0.0306,0.0215,0.0217,0.0218,0.0219,0,0.0661,0.0662,0.0662,0.067,0.0658,0.0641,0.0636,0.0626,0.0581,0.0556,0.053,0.0454,0.0387,0.0276,0.0213,0.0139,0.0075,0.0021,-0.0035,-0.0028,-0.0003,0.0006,-0.013,-0.0133,-0.0136,-0.0138,-0.014,0,0.0634,0.0633,0.0635,0.0639,0.0628,0.0613,0.0627,0.0619,0.0639,0.0613,0.0641,0.0521,0.0465,0.0299,0.013,-0.0058,-0.0013,-0.0196,-0.0139,-0.0064,-0.0038,-0.0025,-0.0013,-0.0215,-0.0218,-0.0219,-0.0221,0,0.0624,0.0619,0.0637,0.0645,0.065,0.0682,0.0706,0.073,0.0754,0.0753,0.0787,0.0724,0.0496,0.0286,-0.0021,-0.0112,-0.0164,-0.024,-0.0129,-0.0109,-0.0152,-0.0123,-0.0107,-0.0238,-0.0236,-0.0235,-0.0234,-0.0233,0.0628,0.0648,0.0686,0.069,0.0711,0.0786,0.0831,0.0886,0.0938,0.089,0.0863,0.073,0.0434,0.0013,-0.0157,-0.0321,-0.0289,-0.0348,-0.0338,-0.0328,-0.0295,-0.0337,-0.0459,-0.0458,-0.0458,-0.0458,-0.0458,0,0.0685,0.0717,0.0744,0.0798,0.0862,0.0847,0.0936,0.0961,0.1038,0.0898,0.0836,0.0492,0.0224,-0.0027,-0.0302,-0.0469,-0.0428,-0.0495,-0.0422,-0.0407,-0.0393,-0.0358,-0.0542,-0.0542,-0.0542,-0.0543,0,0,0.0739,0.0798,0.0823,0.0941,0.0974,0.1094,0.1152,0.1112,0.104,0.0832,0.0669,0.0389,0.0166,-0.0094,-0.0314,-0.0408,-0.0349,-0.0415,-0.0341,-0.0217,-0.02,-0.0317,-0.0249,0,0,0,0,0]}],[{"header":{"parameterUnit":"m.s-1","parameterCategory":2,"la1":30.2991,"la2":30.254,"lo1":-89.0895,"lo2":-89.0444,"dy":0.0017,"dx":0.0017,"nx":28,"ny":28,"refTime":"2024-08-12T21:00:00:Z","depth":"4","parameterNumber":2,"parameterNumberName":"U-component_of_CURRENTS"},"data":[0,0,0,0,0,0,0,0,0,0,0,0,0,0,0,0,0,0,0,0,0,0,0,0,0,0,0,0,0,0,0,0,0,0,0,0,0,0,0,0,0,0,0,0,0,0,0,0,0,0,0,0,0,0,0,0,0,0,0.0144,0.0145,0,0.0185,0.0186,0.0186,0.0225,0.0226,0.0227,0.0227,0.0241,0.0241,0.024,0,0,0,0,0,0,0,0,0,0,0,0,0,0.0086,0.0087,0.0144,0.0145,0.0146,0.0185,0.0186,0.0186,0.0225,0.0226,0.0227,0.0227,0.0241,0.0241,0.024,0,0,0,0,0,0,0,0,0,0,0,0,0,0.0117,0.0087,0.0144,0.017,0.0173,0.0185,0.0186,0.0187,0.0225,0.0226,0.0227,0.0228,0.0241,0.0241,0.024,0.0223,0,0,0.024,0.024,0,0,0,0,0,0,0,0,0.0116,0.0119,0.0166,0.0168,0.0171,0.0201,0.017,0.0198,0.0225,0.0205,0.0227,0.0228,0.0225,0.0226,0.0232,0.0224,0.0225,0.024,0.024,0.024,0.024,0,0,0,0,0,0,0,0.0113,0.0118,0.016,0.0166,0.017,0.0175,0.018,0.0176,0.0209,0.0207,0.021,0.0215,0.0226,0.0232,0.0232,0.0225,0.024,0.024,0.0239,0.0239,0.0216,0.0216,0,0,0,0,0,0,0.0109,0.0116,0.0159,0.0162,0.0145,0.0175,0.0181,0.0191,0.021,0.0214,0.0214,0.0216,0.0232,0.0232,0.0233,0.0232,0.024,0.0239,0.0239,0.0217,0.0216,0.0216,0,0,0,0,0,0,0.0108,0.0113,0.0157,0.014,0.0146,0.0175,0.0186,0.0191,0.0206,0.0216,0.0219,0.0225,0.0232,0.0233,0.0238,0.0232,0.0239,0.0239,0.0218,0.0217,0.0216,0.0218,0,0,0,0,0,0,0.0106,0.0112,0.012,0.0139,0.0147,0.0172,0.0185,0.0191,0.0208,0.0211,0.0225,0.0227,0.0233,0.0238,0.0238,0.0232,0.0239,0.0218,0.0217,0.0216,0.0219,0.0218,0.0217,0,0,0,0,0,0.0104,0.0111,0.012,0.0126,0.0156,0.0172,0.0177,0.02,0.0207,0.0216,0.0225,0.0227,0.0232,0.0238,0.0237,0.0231,0.0219,0.0217,0.0216,0.0219,0.0218,0.0217,0,0,0,0,0,0,0.0087,0.0116,0.0127,0.0142,0.0159,0.0179,0.0191,0.02,0.0214,0.022,0.0225,0.0228,0.0227,0.0227,0.0233,0.022,0.0223,0.0222,0.0226,0.0224,0.0223,0.0237,0.0239,0,0,0,0,0,0.0087,0.0103,0.0126,0.0138,0.0149,0.0169,0.0179,0.0194,0.0207,0.0215,0.0223,0.0225,0.0219,0.0222,0.0219,0.0215,0.022,0.0208,0.0207,0.0206,0.0216,0.0211,0.0211,0.0212,0.0212,0.0212,0,0,0.008,0.0101,0.0108,0.0136,0.0153,0.0169,0.0178,0.0197,0.0207,0.0212,0.0227,0.0222,0.0216,0.0214,0.0213,0.0216,0.0209,0.0205,0.0205,0.0215,0.021,0.021,0.021,0.0211,0.0212,0.0212,0,0,0.008,0.0098,0.0115,0.0132,0.0161,0.0172,0.0178,0.0201,0.0211,0.0219,0.022,0.0217,0.0215,0.0211,0.0206,0.0196,0.0202,0.0189,0.0198,0.0193,0.0193,0.0194,0.0204,0.0205,0.019,0.019,0.019,0,0.0074,0.0101,0.012,0.0142,0.0156,0.0173,0.0189,0.0198,0.0218,0.0221,0.0226,0.0218,0.0213,0.0204,0.0203,0.0195,0.0199,0.0205,0.0193,0.0193,0.0194,0.0204,0.0205,0.019,0.019,0.019,0.019,0,0.0091,0.0112,0.0122,0.0157,0.017,0.0187,0.0203,0.0214,0.0222,0.0228,0.0225,0.022,0.0219,0.0207,0.0204,0.0197,0.0202,0.0191,0.02,0.0194,0.0205,0.0206,0.019,0.019,0.019,0.019,0,0,0.008,0.0125,0.0131,0.0149,0.0181,0.0194,0.0206,0.0221,0.0227,0.0235,0.024,0.0225,0.0226,0.0221,0.0211,0.0206,0.0209,0.0204,0.0203,0.0221,0.0212,0.0256,0.0261,0.0197,0.0197,0.0197,0.0221,0,0.0091,0.0131,0.0148,0.0176,0.0197,0.0212,0.022,0.0231,0.0237,0.0245,0.0236,0.0234,0.0229,0.0226,0.0222,0.021,0.0212,0.0205,0.0209,0.021,0.0255,0.0264,0.0197,0.0222,0.0222,0.0222,0.0222,0,0.0109,0.0134,0.0165,0.0192,0.0201,0.0215,0.0233,0.0241,0.0248,0.0251,0.0253,0.025,0.0247,0.0239,0.0235,0.0232,0.0229,0.022,0.0221,0.0265,0.0256,0.0227,0.0225,0.0225,0.0225,0.0224,0.0224,0,0.0105,0.0145,0.017,0.0182,0.0212,0.0223,0.0234,0.0245,0.0248,0.0257,0.0261,0.0261,0.0262,0.0256,0.0255,0.0243,0.0254,0.0231,0.027,0.0273,0.0225,0.0224,0.0232,0.0232,0.0232,0.0232,0.0232,0,0.0114,0.0134,0.0172,0.0186,0.0205,0.0225,0.0237,0.0247,0.0255,0.026,0.0265,0.0271,0.0266,0.0273,0.0266,0.0288,0.0266,0.0284,0.0284,0.0225,0.0224,0.0226,0.0226,0.0233,0.0232,0.0232,0.0232,0,0.0109,0.0136,0.0164,0.0197,0.0207,0.0221,0.024,0.0244,0.0255,0.0264,0.0268,0.0281,0.0301,0.0306,0.0303,0.0309,0.0315,0.0326,0.0285,0.0279,0.0333,0.0331,0.0369,0.0371,0.0372,0.0373,0.0374,0,0.011,0.0128,0.0168,0.0182,0.0198,0.0219,0.0228,0.0243,0.0249,0.027,0.0274,0.0302,0.0314,0.0349,0.0353,0.037,0.0364,0.0374,0.0338,0.0352,0.0348,0.0344,0.0341,0.0377,0.0377,0.0378,0.0378,0,0.0107,0.0125,0.0145,0.0176,0.0194,0.0211,0.023,0.0236,0.0254,0.0259,0.0286,0.0312,0.0346,0.0366,0.0397,0.0396,0.037,0.0389,0.0385,0.0351,0.0362,0.0356,0.0351,0.0383,0.0383,0.0382,0.0382,0,0.0098,0.0111,0.0142,0.0167,0.0189,0.021,0.0219,0.0239,0.025,0.0276,0.0286,0.0318,0.0337,0.0381,0.0399,0.0424,0.0414,0.0402,0.0397,0.0392,0.0393,0.041,0.0456,0,0,0,0,0,0.0088,0.0107,0.013,0.0164,0.0187,0.0202,0.0224,0.0231,0.025,0.0268,0.0279,0.0312,0.0362,0.038,0.0411,0.042,0.0417,0.0458,0.04,0.0413,0.0406,0.0408,0,0,0,0,0,0,0.0083,0.0106,0.0127,0.0159,0.018,0.0206,0.0221,0.0233,0.0248,0.0266,0.029,0.0313,0.0358,0.0338,0.0407,0.0417,0.0384,0.0482,0.0483,0.0416,0.041,0.0406,0.0405,0,0,0,0,0]},{"header":{"parameterUnit":"m.s-1","parameterCategory":2,"la1":30.2991,"la2":30.254,"lo1":-89.0895,"lo2":-89.0444,"dy":0.0017,"dx":0.0017,"nx":28,"ny":28,"refTime":"2024-08-12T21:00:00:Z","depth":"4","parameterNumber":3,"parameterNumberName":"V-component_of_CURRENTS"},"data":[0,0,0,0,0,0,0,0,0,0,0,0,0,0,0,0,0,0,0,0,0,0,0,0,0,0,0,0,0,0,0,0,0,0,0,0,0,0,0,0,0,0,0,0,0,0,0,0,0,0,0,0,0,0,0,0,0,0,-0.0165,-0.0165,0,-0.0217,-0.0218,-0.0218,-0.022,-0.0219,-0.0219,-0.0218,-0.0268,-0.027,-0.0272,0,0,0,0,0,0,0,0,0,0,0,0,0,-0.0077,-0.0079,-0.0165,-0.0165,-0.0166,-0.0217,-0.0218,-0.0218,-0.022,-0.0219,-0.0218,-0.0218,-0.0267,-0.027,-0.0272,0,0,0,0,0,0,0,0,0,0,0,0,0,-0.012,-0.0079,-0.0165,-0.0174,-0.0176,-0.0217,-0.0218,-0.0219,-0.022,-0.0219,-0.0218,-0.0218,-0.0267,-0.0269,-0.0272,-0.0304,0,0,-0.028,-0.0281,0,0,0,0,0,0,0,0,-0.0117,-0.0123,-0.0172,-0.0174,-0.0175,-0.0212,-0.0206,-0.0248,-0.022,-0.0201,-0.0218,-0.0217,-0.0251,-0.0255,-0.0264,-0.0306,-0.0309,-0.0281,-0.0282,-0.0283,-0.0284,0,0,0,0,0,0,0,-0.0114,-0.0121,-0.0184,-0.0173,-0.0175,-0.018,-0.0185,-0.0213,-0.0229,-0.0203,-0.0204,-0.0212,-0.0251,-0.0262,-0.0265,-0.0309,-0.028,-0.0283,-0.0285,-0.0286,-0.0387,-0.0388,0,0,0,0,0,0,-0.0112,-0.0118,-0.0182,-0.0186,-0.0146,-0.0182,-0.0188,-0.02,-0.0228,-0.0232,-0.0213,-0.0212,-0.0257,-0.0262,-0.0267,-0.032,-0.0283,-0.0286,-0.0287,-0.0386,-0.0387,-0.0388,0,0,0,0,0,0,-0.0109,-0.0117,-0.018,-0.0154,-0.0162,-0.0185,-0.0199,-0.0202,-0.022,-0.0236,-0.0239,-0.0229,-0.0257,-0.0263,-0.0301,-0.0321,-0.0287,-0.029,-0.0385,-0.0386,-0.0388,-0.0416,0,0,0,0,0,0,-0.0107,-0.0116,-0.0129,-0.0154,-0.0164,-0.0209,-0.02,-0.0203,-0.0227,-0.0227,-0.0252,-0.0255,-0.0257,-0.0297,-0.0304,-0.0324,-0.0292,-0.0383,-0.0385,-0.0387,-0.0414,-0.0419,-0.0423,0,0,0,0,0,-0.0104,-0.0123,-0.0129,-0.0137,-0.0179,-0.021,-0.0216,-0.0227,-0.0229,-0.0241,-0.0259,-0.0254,-0.0314,-0.0301,-0.0308,-0.0329,-0.0382,-0.0385,-0.0387,-0.0412,-0.0418,-0.0423,0,0,0,0,0,0,-0.0097,-0.0126,-0.0133,-0.0162,-0.0186,-0.0211,-0.0229,-0.0238,-0.0263,-0.0265,-0.0275,-0.028,-0.032,-0.0324,-0.0309,-0.0364,-0.0345,-0.0349,-0.0362,-0.0367,-0.0372,-0.036,-0.0294,0,0,0,0,0,-0.0102,-0.0123,-0.0149,-0.0176,-0.0189,-0.0212,-0.0229,-0.0237,-0.0261,-0.0271,-0.0292,-0.0313,-0.0336,-0.035,-0.0372,-0.0409,-0.0401,-0.0425,-0.043,-0.0433,-0.0429,-0.0441,-0.0445,-0.0396,-0.0396,-0.0396,0,0,-0.011,-0.0128,-0.0142,-0.0176,-0.0197,-0.022,-0.022,-0.0249,-0.0268,-0.0274,-0.0315,-0.0335,-0.035,-0.0386,-0.0404,-0.0392,-0.0444,-0.0436,-0.0439,-0.0433,-0.0444,-0.0448,-0.0452,-0.0398,-0.0397,-0.0397,0,0,-0.0133,-0.0152,-0.0174,-0.0192,-0.0222,-0.0236,-0.0247,-0.0281,-0.0294,-0.0336,-0.0342,-0.0373,-0.0416,-0.0426,-0.0436,-0.048,-0.0469,-0.049,-0.0503,-0.0514,-0.0518,-0.0521,-0.0517,-0.052,-0.049,-0.049,-0.049,0,-0.0144,-0.0171,-0.0187,-0.0208,-0.0226,-0.0245,-0.0269,-0.0288,-0.0331,-0.0347,-0.0351,-0.0415,-0.0431,-0.0464,-0.0478,-0.049,-0.0488,-0.0481,-0.0519,-0.0522,-0.0525,-0.052,-0.0522,-0.0492,-0.0491,-0.0491,-0.0491,0,-0.0175,-0.0198,-0.0214,-0.0244,-0.0265,-0.0291,-0.0314,-0.0339,-0.0362,-0.038,-0.0427,-0.0453,-0.0483,-0.0499,-0.0504,-0.0536,-0.0525,-0.0524,-0.0502,-0.0531,-0.0524,-0.0526,-0.0494,-0.0493,-0.0493,-0.0492,0,0,-0.0195,-0.023,-0.0235,-0.0249,-0.0284,-0.0303,-0.0336,-0.037,-0.0387,-0.043,-0.0458,-0.0505,-0.0515,-0.0527,-0.054,-0.0553,-0.0576,-0.0549,-0.0549,-0.0538,-0.0592,-0.0558,-0.0557,-0.0583,-0.0583,-0.0584,-0.0578,0,-0.0218,-0.0252,-0.0268,-0.0304,-0.0323,-0.0343,-0.0369,-0.0398,-0.0425,-0.0455,-0.0482,-0.0514,-0.0525,-0.0541,-0.056,-0.0572,-0.0583,-0.0577,-0.057,-0.057,-0.0532,-0.0559,-0.0586,-0.0579,-0.0579,-0.058,-0.058,0,-0.0238,-0.0257,-0.0291,-0.0322,-0.0334,-0.0356,-0.0392,-0.0417,-0.0453,-0.0473,-0.0506,-0.0524,-0.0555,-0.0558,-0.0588,-0.0584,-0.0591,-0.0597,-0.0597,-0.0555,-0.054,-0.0545,-0.0583,-0.0583,-0.0583,-0.0583,-0.0582,0,-0.0229,-0.0272,-0.0297,-0.0308,-0.0347,-0.0366,-0.0389,-0.0424,-0.0439,-0.0479,-0.049,-0.0532,-0.0543,-0.057,-0.0584,-0.0589,-0.0605,-0.0611,-0.0586,-0.0583,-0.06,-0.0596,-0.063,-0.063,-0.063,-0.063,-0.063,0,-0.0236,-0.0256,-0.0292,-0.0302,-0.0327,-0.0359,-0.0385,-0.041,-0.0441,-0.0452,-0.0492,-0.0499,-0.0547,-0.0561,-0.0582,-0.0583,-0.0602,-0.0588,-0.0583,-0.0612,-0.0611,-0.0601,-0.0597,-0.063,-0.063,-0.063,-0.063,0,-0.0221,-0.0246,-0.027,-0.0309,-0.032,-0.0335,-0.0371,-0.0387,-0.0415,-0.0429,-0.0439,-0.0471,-0.0485,-0.0521,-0.0552,-0.0565,-0.058,-0.0574,-0.0591,-0.0586,-0.0551,-0.0549,-0.0551,-0.055,-0.0549,-0.0548,-0.0548,0,-0.0218,-0.0229,-0.0261,-0.027,-0.0289,-0.0315,-0.033,-0.0368,-0.0378,-0.0403,-0.0402,-0.0421,-0.0442,-0.045,-0.0499,-0.0533,-0.0537,-0.0547,-0.0567,-0.055,-0.0545,-0.0545,-0.0544,-0.0546,-0.0546,-0.0546,-0.0545,0,-0.021,-0.022,-0.0236,-0.0248,-0.0265,-0.0286,-0.0309,-0.0308,-0.0344,-0.0362,-0.0354,-0.0375,-0.0384,-0.0419,-0.0442,-0.0472,-0.0548,-0.0537,-0.054,-0.0558,-0.0544,-0.0539,-0.054,-0.0542,-0.0542,-0.0543,-0.0543,0,-0.0202,-0.0205,-0.0221,-0.0232,-0.0248,-0.0262,-0.0276,-0.0284,-0.0295,-0.0317,-0.0307,-0.0334,-0.0355,-0.0385,-0.0409,-0.0434,-0.0446,-0.0461,-0.0468,-0.0473,-0.0457,-0.0427,-0.0385,0,0,0,0,0,-0.0199,-0.0201,-0.0207,-0.022,-0.0233,-0.0247,-0.0265,-0.0279,-0.0296,-0.0277,-0.0292,-0.0298,-0.0331,-0.0349,-0.0363,-0.0407,-0.0464,-0.0427,-0.0488,-0.0523,-0.0527,-0.052,0,0,0,0,0,0,-0.0199,-0.0203,-0.0203,-0.0209,-0.0215,-0.0235,-0.0249,-0.0262,-0.025,-0.0262,-0.027,-0.0291,-0.0319,-0.0309,-0.0356,-0.0367,-0.0408,-0.0447,-0.0448,-0.0521,-0.0525,-0.0528,-0.0522,0,0,0,0,0]}]]